Location: Galaxy Quest Observatory
(44.3404°N, 69.0569°W)
Time: 09:26:12
(UTC-04:00)

N. Korean satellite - Visible Passes

Search period start: 02 April 2020 00:00
Search period end: 12 April 2020 00:00
Orbit: 454 x 507 km, 97.2° (Epoch: 01 April)

Date Brightness Start Highest point End Pass type
(mag) Time Alt. Az. Time Alt. Az. Time Alt. Az.
02 Apr 9.6 05:31:51 10° NE 05:34:13 17° E 05:36:32 10° SE visible
06 Apr 9.8 05:23:17 10° ENE 05:25:02 13° E 05:26:48 10° ESE visible
10 Apr 10.2 05:15:11 10° ENE 05:15:51 10° E 05:16:30 10° E visible
